User: anonymous   Login
Location: Unspecified
(0.0000°N, 0.0000°E)
Time: 20:40:52
(UTC+00:00)
Language:

COSMOS 2438 - Orbit

View from above orbital plane
View from above orbital plane
View from above satellite
View from above satellite

Ground track
Ground track

The orbit data is extracted from the following two-line orbital elements,

1 32955U 08025C   17172.71529585 +.00000005 +00000-0 -34791-4 0  9993
2 32955 082.5023 235.4654 0019659 270.3626 089.5207 12.43298916412082
Epoch (UTC): 21 June 2017 17:10:01
Eccentricity: 0.0019659
inclination: 82.5023°
perigee height: 1477 km
apogee height: 1508 km
right ascension of ascending node: 235.4654°
argument of perigee: 270.3626°
revolutions per day: 12.43298916
mean anomaly at epoch: 89.5207°
orbit number at epoch: 41208

The dashed part of the orbit path shows where the satellite is in the earth's shadow,  

DLR